This demonstration page uses our WeatherBlox Daily Observations layout. Learn more.

Left ArrowRight Arrow

34.16533, -84.80231

Hourly Observations for February 8, 2015

Temp ( °F °C ) Dew Point ( °F °C ) Humidity (%) Winds ( mph kmh ) Pressure ( in mb ) Visibility ( mi km ) Precip ( " mm )
12:53 am 00:53 Clear 34 1.1 24 -4.4 67 67 Calm 30.12 1020 10 16 0.00 0.00
1:53 am 01:53 Clear 34 1.1 24 -4.4 67 67 Calm 30.11 1020 10 16 0.00 0.00
2:53 am 02:53 Clear 33 0.6 25 -3.9 72 72 Calm 30.10 1019 10 16 0.00 0.00
3:53 am 03:53 Clear 34 1.1 26 -3.3 73 73 Calm 30.10 1019 10 16 0.00 0.00
4:53 am 04:53 Clear 31 -0.6 26 -3.3 82 82 Calm 30.10 1019 10 16 0.00 0.00
5:53 am 05:53 Clear 31 -0.6 26 -3.3 82 82 Calm 30.11 1020 10 16 0.00 0.00
6:53 am 06:53 Clear 31 -0.6 27 -2.8 85 85 Calm 30.12 1020 10 16 0.00 0.00
7:53 am 07:53 Sunny 30 -1.1 26 -3.3 85 85 Calm 30.13 1020 10 16 0.00 0.00
8:53 am 08:53 Sunny 41 5 32 0 70 70 N 5 7 30.13 1020 10 16 0.00 0.00
9:53 am 09:53 Sunny 51 10.6 38 3.3 61 61 NE 3 6 30.11 1020 10 16 0.00 0.00
10:53 am 10:53 Sunny 59 15 45 7.2 60 60 VRB 3 6 30.09 1019 10 16 0.00 0.00
11:53 am 11:53 Sunny 63 17.2 46 7.8 54 54 Calm 30.06 1018 10 16 0.00 0.00
12:53 pm 12:53 Cloudy 63 17.2 46 7.8 54 54 VRB 3 6 30.01 1016 10 16 0.00 0.00
1:53 pm 13:53 Mostly Cloudy 65 18.3 46 7.8 51 51 VRB 6 9 29.98 1015 10 16 0.00 0.00
2:53 pm 14:53 Mostly Cloudy 66 18.9 46 7.8 49 49 VRB 5 7 29.96 1014 10 16 0.00 0.00
3:53 pm 15:53 Mostly Cloudy 66 18.9 45 7.2 47 47 VRB 7 11 29.93 1014 10 16 0.00 0.00
4:53 pm 16:53 Mostly Cloudy 66 18.9 46 7.8 49 49 VRB 5 7 29.92 1013 10 16 0.00 0.00
5:53 pm 17:53 Mostly Cloudy 63 17.2 46 7.8 54 54 VRB 5 7 29.92 1013 10 16 0.00 0.00
6:53 pm 18:53 Mostly Cloudy 57 13.9 46 7.8 67 67 Calm 29.93 1014 10 16 0.00 0.00
7:53 pm 19:53 Cloudy 58 14.4 46 7.8 65 65 Calm 29.93 1014 9 14 0.00 0.00
8:53 pm 20:53 Cloudy 61 16.1 46 7.8 58 58 S 7 11 29.91 1013 10 16 0.00 0.00
9:53 pm 21:53 Cloudy 61 16.1 46 7.8 58 58 S 6 9 29.90 1012 10 16 0.00 0.00
10:53 pm 22:53 Cloudy 59 15 46 7.8 62 62 Calm 29.89 1012 10 16 0.00 0.00
11:53 pm 23:53 Cloudy 59 15 46 7.8 62 62 Calm 29.90 1012 10 16 0.00 0.00

Powered by AerisWeather